Regional Weather Roundup
Issued by NWS

Home | Current Version | Previous Version | Graphics & Text | Print | Product List | Glossary On
Versions: 1 2 3 4 5 6 7 8 9 10 11 12 13 14 15 16 17 18 19 20 21 22 23 24 25 26 27 28 29 30 31 32 33 34 35 36 37 38 39 40 41 42 43 44 45 46 47 48 49 50
000
ASUS43 KFSD 161702
RWRSD

WEATHER ROUNDUP FOR SOUTH DAKOTA
NATIONAL WEATHER SERVICE SIOUX FALLS SD
1100 AM CST SAT DEC 16 2017

NOTE: "FAIR" INDICATES FEW OR NO CLOUDS BELOW 12,000 FEET WITH NO
SIGNIFICANT WEATHER AND/OR OBSTRUCTIONS TO VISIBILITY.


SDZ001>005-009-010-012>017-161800-
NORTHWEST AND NORTH CENTRAL SOUTH DAKOTA

CITY           SKY/WX    TMP DP  RH WIND       PRES   REMARKS
BUFFALO          N/A     33  27  78 NW17      29.88R WCI  22
FAITH            N/A     35  30  82 NW14      29.94R WCI  26
MOBRIDGE       MOSUNNY   37  31  78 N9        29.90R
$$

SDZ012>016-024>037-041>051-057-063-072>074-161800-
SOUTHWEST AND SOUTH CENTRAL SOUTH DAKOTA

CITY           SKY/WX    TMP DP  RH WIND       PRES   REMARKS
RAPID CTY ARPT CLOUDY    35  32  88 N12       29.96R WCI  27
PIERRE         CLOUDY    40  33  76 NW15      29.92R
CUSTER         LGT SNOW  30  26  85 CALM      29.88R FOG
ELLSWORTH AFB  CLOUDY    35  35 100 N13       29.95  WCI  26
PHILIP         CLOUDY    39  32  76 NW13      29.95R
PINE RIDGE     CLOUDY    36  30  79 NE12      29.94R
SPEARFISH      FLURRIES  32  30  93 NW6       29.96R WCI  26
WINNER         FAIR      40  32  73 N9        29.93R
$$

SDZ004>011-016>023-039-040-161800-
NORTHEAST SOUTH DAKOTA

CITY           SKY/WX    TMP DP  RH WIND       PRES   REMARKS
ABERDEEN       CLOUDY    40  35  83 N9        29.90R
WATERTOWN      CLOUDY    36  33  89 NW12      29.86R
BROOKINGS      CLOUDY    38  32  79 MISG        N/A
SISSETON         N/A     36  30  79 NW9       29.87R
$$

SDZ017-020-022-023-036>040-048>070-161800-
SOUTHEAST SOUTH DAKOTA

CITY           SKY/WX    TMP DP  RH WIND       PRES   REMARKS
SIOUX FALLS    CLOUDY    42  32  67 N6        29.86R
HURON          CLOUDY    40  33  76 NW10      29.90R
CHAMBERLAIN    CLOUDY    40  33  77 N7        29.91S
MITCHELL       MOSUNNY   40  31  70 N14       29.91R
YANKTON        CLOUDY    38  27  64 NW8       29.88R
$$

ABBREVIATIONS USED IN REMARKS
   TC - TEMPERATURE IN CELSIUS
  WCI - WIND CHILL INDEX
   HX - HEAT INDEX
  VSB - VISIBILITY





USA.gov is the U.S. government's official web portal to all federal, state and local government web resources and services.